Location: Hlin�k
(48.2897°N, 17.2234°E)
Time: 08:57:30
(UTC+00:00)

Daily predictions for brighter satellites

Satellite Brightness Start Highest point End
(mag) Time Altitude Azimuth Time Altitude Azimuth Time Altitude Azimuth
STARLINK-1112 4.1 19:14:32 10° WNW 19:18:39 61° NNE 19:22:45 10° E
STARLINK-1143 3.6 19:15:31 10° SW 19:19:40 74° SSE 19:23:48 10° ENE
Cosmos 1634 Rocket 4.3 19:14:54 10° NNW 19:21:15 79° W 19:27:35 10° S
STARLINK-1124 4.1 19:17:19 10° WNW 19:21:22 52° SW 19:25:23 10° SE
Resurs 1-3 4.2 19:17:40 10° S 19:22:01 60° W 19:26:23 10° NNW
STARLINK-1128 4.0 19:19:30 10° WNW 19:23:38 64° NNE 19:27:46 10° ESE
STARLINK-1241 3.6 19:20:32 10° WSW 19:24:40 79° SSE 19:28:49 10° ENE
STARLINK-1122 4.2 19:22:18 10° WNW 19:26:18 48° SW 19:30:18 10° SE
Cosmos 1300 Rocket 3.6 19:22:14 10° N 19:26:43 82° E 19:31:09 10° S
STARLINK-1113 3.9 19:24:30 10° WNW 19:28:39 67° NNE 19:32:45 10° ESE
STARLINK-1239 3.6 19:25:29 10° WSW 19:29:38 84° SSE 19:33:47 10° ENE
NOSS 8 (E) 4.4 19:26:46 10° SSW 19:29:54 46° SE 19:32:50 10° NE
STARLINK-1126 4.3 19:27:20 10° WNW 19:31:19 45° SW 19:35:17 10° SE
USA 215 4.5 19:25:43 10° ENE 19:31:47 42° N 19:37:49 10° WNW
Aureole 2 Rocket 3.0 19:29:47 10° SSE 19:32:31 29° ESE 19:35:10 10° NE
NOSS 2-2 (D) 4.4 19:30:12 10° SSE 19:32:57 21° ESE 19:35:50 10° ENE
CENTAUR R/B 4.1 19:26:25 10° NW 19:33:34 40° NNE 19:41:33 10° E
STARLINK-1119 3.8 19:29:30 10° WNW 19:33:39 70° NNE 19:37:47 10° ESE
Cosmos 1437 Rocket 3.0 19:30:45 10° S 19:34:23 48° E 19:38:05 10° NNE
Meteor 1-4 Rocket 4.1 19:31:16 10° SW 19:34:29 37° WNW 19:37:45 10° N
STARLINK-1240 3.6 19:30:26 10° WSW 19:34:35 89° SSE 19:38:45 10° ENE
STARLINK-1082 4.4 19:32:18 10° WNW 19:36:13 41° SW 19:40:07 10° SSE
ATLAS 3B R/B 4.4 19:30:51 10° NW 19:36:21 26° NNE 19:41:57 10° ENE
Cosmos 304 Rocket 4.2 19:33:07 10° S 19:37:38 43° ESE 19:42:11 10° NE
Lacrosse 5 2.7 19:33:07 10° WNW 19:37:51 41° SW 19:42:34 10° SSE
STARLINK-1114 3.8 19:34:28 10° WNW 19:38:37 74° NNE 19:42:45 10° ESE
STARLINK-1203 3.7 19:35:02 10° WSW 19:39:15 87° NNW 19:43:28 10° ENE
STARLINK-1216 3.7 19:35:25 10° WSW 19:39:34 87° NNW 19:43:44 10° ENE
STARLINK-1100 4.5 19:37:17 10° WNW 19:41:09 38° SW 19:44:56 10° SSE
ISS -2.2 19:38:22 10° W 19:41:12 25° SW 19:44:03 10° SSE
CZ-2C R/B 3.5 19:36:53 10° N 19:42:24 58° WNW 19:47:53 10° SSW
STARLINK-1130 (DARKSAT) 3.7 19:39:27 10° WNW 19:43:36 78° NNE 19:47:45 10° ESE
STARLINK-1237 3.7 19:40:24 10° WSW 19:44:33 82° NNW 19:48:43 10° ENE
Cosmos 1674 Rocket 3.6 19:43:33 10° S 19:47:52 60° E 19:52:14 10° NNE
Meteor 2-4 Rocket 4.2 19:42:49 10° SSW 19:48:06 62° WNW 19:53:27 10° N
STARLINK-1084 3.7 19:44:26 10° WNW 19:48:36 82° NNE 19:52:45 10° ESE
STARLINK-1202 3.8 19:45:23 10° WSW 19:49:32 78° NNW 19:53:42 10° ENE
NOSS 2-2 (E) 3.6 19:46:43 10° S 19:50:03 38° ESE 19:53:46 10° NE
Cosmos 1378 Rocket 3.8 19:46:33 10° SSE 19:50:48 49° E 19:55:03 10° NNE
EXPRESS MD2 3.6 19:48:16 10° SW 19:51:13 47° SE 19:56:38 10° ENE
SL-27 R/B 4.5 19:50:30 10° N 19:53:07 18° NE 19:55:41 10° ESE
Cosmos 1833 Rocket 4.0 19:48:16 10° NW 19:53:16 34° WSW 19:58:15 10° S
STARLINK-1098 3.6 19:49:25 10° WNW 19:53:35 86° NNE 19:57:33 11° ESE
Cosmos 1766 4.4 19:50:49 10° N 19:54:25 31° ENE 19:57:24 13° SE
Cosmos 2297 3.8 19:49:19 10° S 19:54:52 59° ESE 20:00:30 10° NE
Cosmos 1943 Rocket 3.1 19:50:46 10° SSE 19:55:24 28° ESE 20:00:06 10° NE
STARLINK-1123 3.6 19:54:22 10° WNW 19:58:32 89° SW 20:02:19 12° ESE
STARLINK-1246 3.9 19:55:23 10° WSW 19:59:31 71° NNW 20:03:40 10° ENE
IGS 5A 3.5 19:55:29 10° SSE 19:59:39 89° W 20:03:50 10° NNW
Cosmos 2082 Rocket 3.0 19:54:36 10° NW 20:00:05 48° WSW 20:05:31 10° S
Cosmos 1452 Rocket 4.0 19:56:18 10° SSW 20:01:33 65° WNW 20:06:50 10° NNE
Cosmos 332 Rocket 4.0 19:56:53 10° SSW 20:01:48 78° WNW 20:06:43 10° NNE
BREEZE-M DEB 3.3 19:59:53 10° SSW 20:02:04 29° SE 20:06:15 10° ENE
Landsat 7 3.9 19:57:52 10° SSE 20:02:38 85° WSW 20:07:26 10° NNW
STARLINK-1097 3.6 19:59:23 10° WNW 20:03:33 85° SSW 20:07:07 14° ESE
STARLINK-1224 4.0 20:00:22 10° WSW 20:04:30 68° NNW 20:08:39 10° ENE
Meteor 1-23 Rocket 4.2 20:00:27 10° S 20:06:07 71° E 20:11:44 10° NNE
Cosmos 1461 3.0 20:04:13 10° SW 20:08:23 86° NW 20:12:47 10° NE
STARLINK-1099 3.6 20:04:21 10° WNW 20:08:30 80° SSW 20:11:54 15° ESE
STARLINK-1225 4.1 20:05:23 10° WSW 20:09:30 65° NNW 20:13:38 10° ENE
Cosmos 1975 Rocket 4.1 20:07:29 15° SE 20:10:21 29° E 20:14:10 10° NNE
SAR-Lupe-2 3.6 20:07:07 10° NNE 20:10:44 87° WNW 20:14:19 10° SSW
Cosmos 2369 Rocket 3.2 20:07:22 13° SSE 20:11:19 28° ESE 20:16:01 10° NE
STARLINK-1104 3.6 20:09:20 10° WNW 20:13:28 75° SSW 20:16:40 16° SE
STARLINK-1230 4.2 20:10:23 10° W 20:14:29 62° NNW 20:18:36 10° ENE
CZ-4B DEB 4.3 20:11:56 16° SSE 20:14:33 85° WSW 20:17:55 10° NNW
NOSS 2-2 (C) 3.2 20:11:07 10° SSW 20:14:35 52° SE 20:18:27 10° NE
STARLINK-1212 4.4 20:11:48 10° WNW 20:14:43 36° N 20:17:38 10° ENE
STARLINK-1105 4.4 20:12:16 10° WNW 20:15:11 36° N 20:18:05 10° ENE
STARLINK-1247 4.4 20:13:08 10° WNW 20:16:04 36° N 20:19:00 10° ENE
STARLINK-1227 4.3 20:13:39 10° WNW 20:16:34 36° N 20:19:29 10° ENE
STARLINK-1226 4.3 20:14:30 10° WNW 20:17:25 36° N 20:20:22 10° E
STARLINK-1215 4.3 20:15:24 10° WNW 20:18:20 36° N 20:21:16 10° E
STARLINK-1144 3.6 20:14:19 10° WNW 20:18:27 71° SSW 20:21:28 18° SE
ATLAS 2AS CENTAUR R/B 4.0 20:13:12 13° SSE 20:18:31 26° ESE 20:24:46 10° ENE
SPOT 5 3.1 20:14:18 15° SSE 20:18:42 74° ENE 20:24:04 10° N
STARLINK-1243 4.3 20:15:24 10° W 20:19:30 59° NNW 20:23:36 10° ENE
STARLINK-1217 4.3 20:17:14 10° WNW 20:20:09 37° N 20:23:06 10° E
NOSS 3-2 (A) 4.1 20:13:12 10° NW 20:20:37 79° NE 20:27:48 15° SE
STARLINK-1229 4.3 20:18:07 10° WNW 20:21:05 37° N 20:24:01 10° E
STARLINK-1270 4.3 20:19:01 10° WNW 20:21:59 37° N 20:24:55 10° E
Meteor 1-22 Rocket 4.5 20:16:32 10° N 20:22:26 62° ENE 20:26:47 17° SSE
OPS 6432 4.5 20:19:19 10° NW 20:22:26 75° NE 20:24:58 20° SE
STARLINK-1103 3.7 20:19:18 10° WNW 20:23:25 66° SSW 20:26:13 19° SE
STARLINK-1189 4.3 20:20:49 10° WNW 20:23:46 37° N 20:26:43 10° E
ERS-1 Rocket 3.0 20:19:40 15° SSE 20:23:55 88° WSW 20:28:59 10° NNW
STARLINK-1236 4.3 20:20:23 10° W 20:24:28 57° NNW 20:28:34 10° ENE
STARLINK-1188 4.3 20:21:43 10° WNW 20:24:41 38° N 20:27:39 10° E
STARLINK-1187 4.1 20:22:49 10° WNW 20:25:46 39° NNE 20:28:43 10° E
STARLINK-1191 4.2 20:24:11 10° WNW 20:27:07 38° NNE 20:30:04 10° E
STARLINK-1221 4.2 20:25:08 10° WNW 20:28:05 38° NNE 20:31:02 10° E
STARLINK-1101 3.7 20:24:17 10° WNW 20:28:23 61° SSW 20:31:00 21° SE
Okean 2 3.8 20:25:56 19° SSE 20:28:38 47° E 20:32:39 10° NNE
STARLINK-1222 4.2 20:25:59 10° WNW 20:28:56 38° NNE 20:31:52 10° E
Cosmos 1066 Rocket 4.2 20:23:51 10° SSW 20:29:14 79° WNW 20:34:37 10° N
STARLINK-1214 4.2 20:26:52 10° WNW 20:29:50 39° NNE 20:32:47 10° E
USA 245 4.3 20:27:56 10° SSW 20:30:27 24° W 20:32:39 10° NW
USA 238 DEB 3.9 20:25:17 10° NW 20:32:31 87° NE 20:38:26 18° SE
USA 238 3.9 20:25:23 10° NW 20:32:37 87° NE 20:38:32 18° SE
STARLINK-1102 3.8 20:29:17 10° WNW 20:33:21 57° SSW 20:35:47 22° SE
Cosmos 968 Rocket 4.3 20:29:04 10° N 20:33:56 40° ENE 20:37:31 17° ESE
Okean 1 Rocket 3.6 20:29:45 10° NNW 20:34:08 55° W 20:37:54 13° S
Resurs 01 Rocket 4.0 20:31:14 10° SW 20:34:17 18° W 20:37:22 10° NW
STARLINK-1228 4.0 20:30:55 10° WNW 20:34:21 49° NNE 20:37:42 10° E
STARLINK-1269 4.5 20:30:24 10° W 20:34:29 53° NNW 20:38:33 10° ENE
Cosmos 1805 3.2 20:30:32 10° N 20:34:29 84° WSW 20:37:07 20° S
Cosmos 1470 4.1 20:31:15 10° NNE 20:34:36 27° ENE 20:36:30 18° ESE
Cosmos 2278 Rocket 4.4 20:30:13 10° WSW 20:35:04 28° NW 20:39:57 10° NNE
Nadezhda 4 Rocket 4.1 20:29:30 10° SSW 20:35:38 79° W 20:41:48 10° N
STARLINK-1235 3.9 20:34:34 10° WNW 20:37:42 47° NNE 20:40:37 12° E
STARLINK-1111 3.9 20:34:16 10° WNW 20:38:18 53° SW 20:40:34 24° SSE
Cosmos 1455 Rocket 3.4 20:35:35 10° N 20:39:50 51° ENE 20:42:18 23° SE
STARLINK-1073 4.0 20:39:16 10° WNW 20:43:17 49° SW 20:45:21 25° SSE
SL-8 R/B 4.0 20:38:55 10° W 20:43:33 49° SSW 20:46:16 23° SE
Terra 1.8 20:44:22 21° SSE 20:47:36 85° WSW 20:52:24 10° NNW
Cosmos 1758 4.4 20:44:02 10° N 20:47:45 33° ENE 20:49:40 22° ESE
STARLINK-1121 4.1 20:44:15 10° WNW 20:48:14 46° SW 20:50:08 26° SSE
Cosmos 1110 Rocket 4.4 20:43:20 10° SW 20:48:28 63° WNW 20:53:38 10° NNE
ATLAS 3B CENTAUR R/B 4.3 20:41:08 10° SW 20:48:34 19° SSW 20:50:57 16° S
SL-4 R/B 2.9 20:44:17 10° SSW 20:48:38 35° SE 20:53:03 10° ENE
Cosmos 1842 3.3 20:48:52 25° S 20:50:56 62° E 20:54:48 10° NNE
CARTOSAT-1 4.2 20:47:49 17° S 20:50:58 49° W 20:55:11 10° NNW
Abrixas rocket 3.5 20:49:28 10° W 20:51:48 21° SSW 20:51:50 21° SSW
STARLINK-1106 4.2 20:49:17 10° WNW 20:53:13 42° SW 20:54:57 27° SSE
STARLINK-1234 3.5 20:52:19 10° WNW 20:55:34 58° NNE 20:57:44 19° E
STARLINK-1112 4.3 20:54:15 10° WNW 20:58:08 39° SW 20:59:42 28° S
Cosmos 2263 4.5 20:57:25 21° S 21:00:49 47° ESE 21:06:11 10° NE
STARLINK-1209 3.3 20:58:17 10° WNW 21:01:33 65° NNE 21:03:26 23° E
STARLINK-1128 4.4 20:59:16 10° WNW 21:03:05 37° SW 21:04:28 28° S
Cosmos 1733 3.8 21:03:49 10° NNW 21:07:33 50° W 21:09:32 24° SSW
Cosmos 1536 Rocket 4.4 21:08:36 27° SE 21:10:07 35° E 21:14:06 10° NNE
Meteor 1-21 4.2 21:07:51 22° S 21:11:30 72° E 21:17:05 10° NNE
COSMOS 2455 3.8 21:09:45 24° SE 21:11:46 29° ESE 21:16:50 10° NE
Cosmos 1354 Rocket 4.5 21:07:55 10° NNW 21:13:08 54° ENE 21:16:12 24° SE
USA 215 3.8 21:07:47 10° E 21:14:10 58° NNE 21:20:34 10° NW
JB-3 4.3 21:10:28 10° NNE 21:14:38 77° ESE 21:16:37 30° S
Cosmos 1302 Rocket 4.1 21:10:13 11° SSW 21:15:20 77° WNW 21:20:40 10° NNE
Cosmos 1486 Rocket 4.0 21:10:01 10° NNW 21:15:22 80° WSW 21:18:13 28° SSE
Cosmos 1271 Rocket 3.0 21:14:22 35° SSE 21:15:39 52° E 21:19:31 10° NNE
Cosmos 1833 4.3 21:10:14 10° NNW 21:15:54 71° ENE 21:19:13 25° SE
Cosmos 1544 Rocket 3.5 21:12:17 10° N 21:16:39 89° E 21:18:39 32° S
Cosmos 1242 Rocket 2.5 21:15:26 35° S 21:16:51 79° ESE 21:20:34 10° NNE
Spot 4 4.3 21:14:22 26° SE 21:16:54 51° ENE 21:21:36 10° N
MTI 4.2 21:14:24 10° N 21:17:30 55° WNW 21:18:58 27° SW
STARLINK-60 2.9 21:20:10 50° S 21:20:35 56° SSE 21:23:44 10° ENE
Cosmos 1092 Rocket 4.4 21:15:30 11° SSW 21:21:15 58° WNW 21:27:20 10° N
CENTAUR R/B 3.2 21:17:06 10° NW 21:25:08 82° SW 21:31:08 23° SSE
Cosmos 1707 2.9 21:24:35 38° SSE 21:25:45 54° E 21:29:33 10° NNE
STARLINK-1218 4.5 21:23:34 10° WNW 21:27:37 50° NNE 21:31:40 10° E
ATLAS 3B R/B 3.1 21:21:39 10° NW 21:28:22 62° NE 21:33:56 16° ESE
SL-27 R/B 3.4 21:25:02 10° NW 21:28:24 38° WSW 21:29:28 30° SW
NOSS 3-2 (C) 4.1 21:22:50 10° NW 21:30:19 71° SW 21:35:37 25° SSE
Cosmos 1726 2.8 21:28:13 10° N 21:31:48 44° ENE 21:32:50 34° ESE
ALOS 2 3.7 21:30:24 23° ESE 21:32:24 35° ENE 21:36:25 10° N
STARLINK-1254 4.4 21:28:32 10° WNW 21:32:37 52° NNE 21:36:40 10° E
Cosmos 1867 3.6 21:29:41 10° NW 21:35:11 85° NE 21:38:07 28° SE
COSMOS 2487 3.1 21:32:46 10° N 21:36:08 44° ENE 21:37:03 35° ESE
STARLINK-1231 4.3 21:33:31 10° WNW 21:37:36 53° NNE 21:41:40 10° E
Cosmos 1943 Rocket 2.9 21:33:26 10° SW 21:38:51 52° NW 21:44:21 10° NNE
Cosmos 1992 Rocket 3.9 21:36:08 28° S 21:38:51 72° ESE 21:44:04 10° NNE
NOSS 3-4 (A) 3.4 21:36:31 22° SSW 21:40:23 61° ESE 21:46:38 10° NE
NOSS 3-4 (C) 3.4 21:36:40 22° SSW 21:40:30 61° ESE 21:46:44 10° NE
SeaSat 1 2.5 21:37:35 10° NE 21:42:28 58° ESE 21:44:34 32° S
STARLINK-1232 4.3 21:38:31 10° WNW 21:42:37 55° NNE 21:46:40 10° E
EO 1 Del DPAF 3.1 21:39:33 10° NNE 21:43:21 83° ESE 21:44:29 43° S
STARLINK-1208 4.2 21:43:29 10° WNW 21:47:35 57° NNE 21:51:25 12° E
Cosmos 2315 Rocket 4.5 21:42:46 10° N 21:48:48 50° ENE 21:52:08 26° SE
STARLINK-29 4.1 21:51:41 31° E 21:51:41 31° E 21:53:36 10° ENE
STARLINK-1212 2.7 21:47:37 10° WNW 21:50:44 78° SSW 21:50:47 78° SSW
STARLINK-1105 2.7 21:48:06 10° WNW 21:51:12 77° SSW 21:51:12 77° SSW
Meteor 2-10 3.9 21:46:30 10° NNW 21:51:34 87° W 21:53:43 35° S
Cosmos 292 Rocket 4.3 21:48:20 17° SW 21:51:57 57° WNW 21:56:46 10° NNE
STARLINK-1247 2.7 21:48:58 10° WNW 21:52:06 76° SSW 21:52:07 76° SSW
STARLINK-1227 2.7 21:49:28 10° WNW 21:52:32 75° SW 21:52:32 75° SW
STARLINK-1271 4.1 21:48:29 10° WNW 21:52:36 60° NNE 21:56:14 13° E
BREEZE-M DEB (TANK) 3.2 21:41:51 10° WSW 21:52:59 85° NNW 21:56:15 10° ENE
STARLINK-1226 2.7 21:50:19 10° WNW 21:53:23 74° SW 21:53:23 74° SW
BREEZE-M DEB (TANK) 2.8 21:50:06 10° WNW 21:53:42 90° SW 21:58:05 10° ESE
RESURS DK-1 3.7 21:53:57 24° ESE 21:53:57 24° ESE 21:57:17 10° NE
STARLINK-1215 2.7 21:51:13 10° WNW 21:54:16 73° SW 21:54:16 73° SW
S3M 4.0 21:48:42 10° N 21:54:53 80° W 21:58:11 30° S
Cosmos 2369 Rocket 2.8 21:49:28 10° SW 21:55:01 54° WNW 22:00:35 10° NNE
Cosmos 2227 Rocket 4.3 21:50:53 10° N 21:55:15 22° NE 21:59:35 10° E
STARLINK-1217 2.8 21:53:02 10° WNW 21:56:00 69° SW 21:56:00 69° SW
STARLINK-1229 2.8 21:53:57 10° WNW 21:56:54 68° WSW 21:56:54 68° WSW
STARLINK-1154 4.0 21:53:28 10° WNW 21:57:36 62° NNE 22:01:00 15° E
STARLINK-1270 2.9 21:54:50 10° WNW 21:57:45 66° WSW 21:57:45 66° WSW
STARLINK-1189 2.9 21:56:38 10° WNW 21:59:29 62° WSW 21:59:29 62° WSW
STARLINK-1188 3.0 21:57:33 10° WNW 22:00:22 60° WSW 22:00:22 60° WSW
ATLAS CENTAUR R/B 1.4 21:59:35 41° S 22:00:54 66° SE 22:05:00 10° NE
Cosmos 1340 Rocket 2.8 21:57:19 10° NNW 22:01:24 88° W 22:02:31 47° S
STARLINK-1187 3.3 21:58:39 10° WNW 22:01:14 49° WSW 22:01:14 49° WSW
Cosmos 1626 4.2 22:01:28 15° E 22:01:56 16° E 22:04:13 10° NE
STARLINK-1197 4.0 21:58:26 10° WNW 22:02:33 65° NNE 22:05:46 16° E
STARLINK-1191 3.1 22:00:00 10° WNW 22:02:39 54° WSW 22:02:39 54° WSW
Aureole 3 2.7 22:00:02 10° N 22:03:15 63° ENE 22:03:24 61° E
STARLINK-1221 3.2 22:00:57 10° WNW 22:03:34 53° WSW 22:03:34 53° WSW
Thor Agena Rocket 3.8 21:58:49 10° N 22:04:05 68° WNW 22:07:12 25° SSW
Cosmos 1025 Rocket 3.5 22:02:58 30° SW 22:04:51 55° WNW 22:09:06 10° N
STARLINK-1222 3.2 22:01:48 10° WNW 22:04:23 51° WSW 22:04:23 51° WSW
STARLINK-1214 3.3 22:02:42 10° WNW 22:05:15 50° WSW 22:05:15 50° WSW
Cosmos 1908 3.6 22:02:44 10° N 22:06:29 51° ENE 22:07:21 41° ESE
Meteor 2-19 Rocket 4.4 22:03:37 31° S 22:06:46 82° E 22:12:54 10° NNE
Nimbus 7 Rocket 4.5 22:01:02 10° NNE 22:07:08 70° ESE 22:10:05 32° S
STARLINK-1198 3.9 22:03:24 10° WNW 22:07:33 68° NNE 22:10:32 18° ESE
Cosmos 1656 Rocket 3.7 22:04:50 22° SW 22:08:33 78° WNW 22:14:09 10° NNE
ATLAS 2AS CENTAUR R/B 3.0 22:00:42 10° SW 22:08:43 89° NW 22:16:42 10° NE
BREEZE M DEB (TANK) 2.8 22:06:38 10° W 22:08:32 38° WNW 22:08:32 38° WNW
Cosmos 1953 2.5 22:05:44 10° NNW 22:09:41 59° W 22:10:41 43° SSW
Cosmos 1470 4.3 22:07:20 10° NNW 22:10:35 26° W 22:11:51 21° WSW
BREEZE-M DEB (TANK) 3.8 22:00:49 10° WNW 22:10:48 46° SW 22:11:56 38° S
STARLINK-1228 3.8 22:08:13 10° WNW 22:11:08 42° WSW 22:11:08 42° WSW
STARLINK-1199 3.8 22:08:24 10° WNW 22:12:33 71° NNE 22:15:20 20° ESE
Cosmos 2292 Rocket 2.9 22:13:24 59° S 22:14:00 89° E 22:17:13 10° N
STARLINK-1235 4.0 22:10:56 10° WNW 22:13:12 34° WSW 22:13:12 34° WSW
FALCON 9 R/B 4.4 22:19:35 16° SE 22:19:35 16° SE 22:23:01 10° ESE
STARLINK-1210 3.7 22:13:22 10° WNW 22:17:32 75° NNE 22:20:06 22° ESE
KORONAS-FOTON 4.0 22:17:21 49° SE 22:17:57 57° E 22:21:46 10° NNE
Cosmos 1655 Rocket 4.2 22:15:01 25° SSW 22:18:44 65° WNW 22:25:00 10° N
SL-4 R/B 2.7 22:20:18 26° NW 22:20:18 26° NW 22:21:29 10° NNW
Cosmos 1777 Rocket 4.1 22:15:42 10° NNW 22:20:57 74° ENE 22:23:18 34° SE
STARLINK-1219 3.6 22:18:21 10° WNW 22:22:30 79° NNE 22:24:52 25° ESE
ATLAS 5 CENTAUR R/B 1.4 22:21:46 28° WSW 22:23:19 67° NW 22:25:29 10° NE
Terra 4.3 22:24:42 10° WSW 22:26:05 11° W 22:27:30 10° WNW
Cosmos 1892 Rocket 4.2 22:25:06 36° SE 22:26:10 43° E 22:30:20 10° NNE
STARLINK-52 2.9 22:26:27 77° E 22:26:27 77° E 22:29:30 10° ENE
Cosmos 2228 2.9 22:23:12 10° N 22:27:28 81° ENE 22:28:36 48° SSE
STARLINK-1211 3.6 22:23:20 10° WNW 22:27:30 83° NNE 22:29:40 27° ESE
SL-4 R/B 2.4 22:23:18 10° WSW 22:28:09 81° NNW 22:33:00 10° ENE
Meteor 2-15 4.5 22:22:06 10° NNW 22:28:14 72° W 22:31:06 33° S
Cosmos 1726 Rocket 3.6 22:23:55 10° N 22:28:15 68° E 22:29:31 43° SE
STARLINK-1245 3.5 22:28:18 10° WNW 22:32:28 87° NNE 22:34:26 30° ESE
Cosmos 1300 3.9 22:28:58 10° N 22:32:29 34° ENE 22:33:33 28° ESE
Cosmos 921 Rocket 3.8 22:31:52 34° SE 22:32:35 36° ESE 22:36:36 10° NE
In-Cosmos 22 4.3 22:30:05 31° SSW 22:32:36 65° WNW 22:37:53 10° N
YAOGAN 11 4.3 22:31:51 38° SE 22:33:20 62° ENE 22:37:36 10° N
Meteor 1-24 Rocket 4.1 22:33:05 32° SE 22:35:05 47° E 22:40:19 10° NNE
Cosmos 2266 Rocket 4.2 22:33:43 28° SSW 22:37:01 63° WNW 22:43:02 10° N
CZ-4C R/B 4.0 22:36:20 13° ESE 22:37:08 13° ESE 22:39:36 10° ENE
STARLINK-1233 3.5 22:33:16 10° WNW 22:37:26 88° SW 22:39:12 34° ESE
STARLINK-1371 4.4 22:39:10 32° ESE 22:39:10 32° ESE 22:41:44 10° ENE
Cosmos 1437 4.4 22:40:11 22° E 22:40:11 22° E 22:42:21 10° NE
STARLINK-1341 4.2 22:42:21 35° ESE 22:42:21 35° ESE 22:45:04 10° ENE
STARLINK-1204 3.5 22:38:15 10° WNW 22:42:26 83° SSW 22:43:59 37° ESE
SJ 16-02 3.1 22:40:17 10° N 22:44:04 27° ENE 22:47:11 13° ESE
STARLINK-1339 4.3 22:45:38 33° ESE 22:45:38 33° ESE 22:48:05 10° ENE
STARLINK-1374 4.1 22:45:33 38° ESE 22:45:33 38° ESE 22:48:26 10° ENE
STARLINK-1238 3.5 22:43:16 10° WNW 22:47:25 79° SSW 22:48:48 41° SE
Cosmos 1674 3.0 22:48:20 44° SW 22:49:08 55° WNW 22:52:52 10° N
Helios 1B rocket 3.4 22:45:31 10° NNE 22:49:18 34° E 22:50:09 30° ESE
STARLINK-1239 4.5 22:45:31 10° WNW 22:49:34 51° NNE 22:53:37 10° E
STARLINK-1377 3.8 22:52:00 45° ESE 22:52:00 45° ESE 22:55:12 10° ENE
STARLINK-1201 3.5 22:48:14 10° WNW 22:52:23 74° SSW 22:53:33 45° SE
Cosmos 1244 Rocket 4.5 22:51:03 34° S 22:53:56 75° E 23:00:07 10° NNE
STARLINK-1240 4.4 22:50:29 10° WNW 22:54:33 53° NNE 22:58:37 10° E
STARLINK-1353 3.7 22:55:17 49° SE 22:55:17 49° SE 22:58:37 10° ENE
CZ-2D R/B 4.5 22:55:33 10° ENE 22:56:43 11° E 22:57:52 10° E
STARLINK-60 4.3 22:53:46 10° W 22:56:49 41° NNW 22:59:52 10° ENE
USA 215 3.2 22:52:57 23° SE 22:57:09 65° SW 23:03:41 10° WNW
COSMOS 2455 3.3 22:52:50 18° SW 22:57:20 61° NW 23:03:20 10° NNE
STARLINK-1206 3.5 22:53:14 10° WNW 22:57:22 69° SSW 22:58:21 48° SSE
STARLINK-1375 3.5 22:58:33 53° SE 22:58:33 53° SE 23:02:03 10° ENE
Cosmos 2219 3.4 22:53:11 10° NNW 22:58:51 68° ENE 23:02:17 24° SE
STARLINK-1216 4.3 22:55:27 10° WNW 22:59:32 54° NNE 23:03:37 10° E
STARLINK-1203 4.3 22:55:32 10° WNW 22:59:41 55° NNE 23:03:49 10° E
STARLINK-1352 3.5 23:01:56 53° ESE 23:01:56 53° ESE 23:05:11 10° ENE
STARLINK-1350 3.4 23:01:49 56° SE 23:01:49 56° SE 23:05:27 10° ENE
STARLINK-1205 3.5 22:58:13 10° WNW 23:02:19 65° SSW 23:03:07 51° SSE
Helios 1A 3.3 23:01:35 43° SW 23:02:29 51° W 23:06:35 10° NNW
Cosmos 2297 Rocket 2.6 22:57:30 10° NNW 23:03:07 61° ENE 23:07:00 20° SE
STARLINK-1237 4.3 23:00:26 10° WNW 23:04:33 56° NNE 23:08:38 10° E
Cosmos 1726 4.3 23:04:28 10° NW 23:06:38 15° W 23:07:20 14° W
PSLV R/B 4.0 23:02:13 10° NNE 23:06:39 52° E 23:07:54 39° SSE
Lacrosse 4 Rocket 3.4 23:03:03 10° NNW 23:06:47 27° NE 23:10:26 10° ESE
STARLINK-1218 3.6 23:03:13 10° WNW 23:07:18 60° SSW 23:07:55 53° S
STARLINK-1368 3.3 23:08:27 62° SSE 23:08:38 63° SSE 23:12:23 10° ENE
ALOS 2 3.9 23:07:47 25° WSW 23:08:47 27° W 23:12:33 10° NW
STARLINK-1202 4.2 23:05:26 10° WNW 23:09:32 59° NNE 23:13:38 10° E
Timation 2 Rocket 4.1 23:04:16 10° NW 23:10:26 56° WSW 23:12:55 34° S
Cosmos 2058 Rocket 3.1 23:06:17 10° NNW 23:10:43 69° W 23:11:58 45° SSW
Cosmos 1455 4.3 23:08:01 10° NNE 23:10:52 20° ENE 23:12:54 14° ESE
STARLINK-1369 3.3 23:11:47 62° S 23:12:06 67° SSE 23:15:53 10° ENE
STARLINK-1254 3.6 23:08:12 10° WNW 23:12:16 56° SW 23:12:41 53° S
Cosmos 1626 Rocket 4.1 23:11:50 35° SE 23:13:07 46° E 23:17:18 10° NNE
Meteor 1-29 3.9 23:10:24 10° NNE 23:13:30 33° E 23:13:48 33° ESE
Cosmos 1898 Rocket 4.4 23:08:24 10° NNW 23:13:34 46° ENE 23:17:35 16° SE
CENTAUR R/B 4.4 23:08:52 10° WNW 23:15:09 24° WSW 23:18:17 20° SW
STARLINK-1372 3.2 23:15:07 61° SSW 23:15:35 70° SSE 23:19:22 10° ENE
Meteor 2-5 Rocket 3.9 23:14:12 32° SW 23:16:47 63° WNW 23:22:24 10° N
STARLINK-1231 3.7 23:13:11 10° WNW 23:17:13 52° SW 23:17:27 51° SSW
ATLAS 3B R/B 3.4 23:12:41 10° NW 23:18:48 36° WSW 23:21:09 29° SSW
STARLINK-1378 3.2 23:18:28 58° SSW 23:19:05 74° SSE 23:22:52 10° ENE
STARLINK-1246 4.0 23:15:25 10° WNW 23:19:33 64° NNE 23:23:40 10° ESE
SeaSat 1 4.2 23:15:33 10° N 23:19:42 28° NW 23:23:51 10° WSW
SL-14 R/B 3.2 23:19:11 52° SW 23:20:00 71° W 23:23:51 10° N
FALCON 9 DEB 3.5 23:20:07 28° W 23:21:44 61° NNW 23:25:10 10° ENE
STARLINK-1232 3.8 23:18:11 10° WNW 23:22:12 48° SW 23:22:15 48° SSW
STARLINK-1379 3.2 23:21:51 55° SW 23:22:35 78° SSE 23:26:24 10° ENE
STARLINK-1329 3.2 23:23:14 53° SW 23:24:02 79° SSE 23:27:51 10° ENE
STARLINK-1224 3.9 23:20:23 10° WNW 23:24:31 67° NNE 23:28:39 10° ESE
SL-16 R/B 3.8 23:20:07 10° SE 23:25:38 36° ENE 23:31:11 10° N
STARLINK-29 4.1 23:24:03 13° W 23:26:41 42° NNW 23:29:45 10° ENE
STARLINK-1208 3.9 23:23:10 10° WNW 23:27:00 45° SW 23:27:00 45° SW
STARLINK-1362 3.2 23:26:40 49° SW 23:27:37 83° SSE 23:31:27 10° ENE
ATLAS CENTAUR R/B 1.2 23:26:50 10° NW 23:29:11 84° NE 23:33:59 10° SE
STARLINK-1225 3.8 23:25:22 10° WNW 23:29:32 70° NNE 23:33:40 10° ESE
Cosmos 1656 4.0 23:27:53 33° S 23:30:11 54° ESE 23:35:40 10° NE
STARLINK-1373 3.3 23:30:05 45° WSW 23:31:11 86° SSE 23:35:02 10° ENE
RESURS DK-1 3.4 23:29:48 24° WSW 23:31:47 40° NW 23:35:44 10° NNE
STARLINK-1271 4.1 23:28:12 10° WNW 23:31:48 41° SW 23:31:48 41° SW
STARLINK-1365 3.3 23:31:12 42° WSW 23:32:26 89° SSE 23:36:18 10° ENE
STARLINK-1230 3.8 23:30:21 10° WNW 23:34:30 74° NNE 23:38:39 10° ESE
STARLINK-1390 3.3 23:33:35 41° WSW 23:34:49 90° ENE 23:38:39 10° ENE
Cosmos 1697 Rocket 3.7 23:32:47 24° SSE 23:35:13 34° ESE 23:40:17 10° NE
Cosmos 2084 4.1 23:33:36 24° WSW 23:36:06 56° NW 23:40:30 10° NE
Cosmos 1626 2.9 23:36:00 35° WSW 23:36:51 41° WNW 23:40:24 10° N
Cosmos 1812 Rocket 3.8 23:32:32 10° N 23:37:01 68° E 23:38:55 33° SSE
STARLINK-1154 4.2 23:33:12 10° WNW 23:36:35 37° WSW 23:36:35 37° WSW
BREEZE-M R/B 3.1 23:31:45 12° WSW 23:37:51 67° SSE 23:41:18 10° ENE
Okean 1-7 Rocket 4.4 23:37:39 30° SW 23:39:19 43° WNW 23:43:40 10° N
STARLINK-1243 3.7 23:35:20 10° WNW 23:39:30 77° NNE 23:43:39 10° ESE
Cosmos 990 Rocket 4.1 23:34:35 10° NNW 23:39:53 75° ENE 23:43:10 23° SSE
Cosmos 2227 Rocket 2.1 23:34:21 10° NNW 23:40:04 86° WSW 23:43:30 25° SSE
ATLAS CENTAUR R/B 3.5 23:36:43 10° W 23:40:08 23° NW 23:43:24 10° NNE
CZ-4 R/B 3.9 23:37:08 10° N 23:41:54 67° WNW 23:43:50 34° SW
STARLINK-1197 4.4 23:38:11 10° WNW 23:41:21 34° WSW 23:41:21 34° WSW
STARLINK-1236 3.6 23:40:18 10° WNW 23:44:28 81° NNE 23:48:37 10° ESE
Cosmos 1709 Rocket 4.3 23:44:11 25° SSE 23:47:44 57° E 23:53:44 10° NNE
Alouette 2 Rocket 4.4 23:42:36 10° N 23:48:11 54° ENE 23:50:43 22° SE
Cosmos 1602 Rocket 3.4 23:47:23 40° S 23:48:53 84° E 23:53:15 10° N
SL-08 ROCKET BODY 4.3 23:46:46 31° SSW 23:49:43 84° W 23:55:36 10° N
STARLINK-1269 3.5 23:50:16 10° WNW 23:54:26 90° SSW 23:58:36 10° ESE
